Theta_e
359 360 355 350 351 348 347 345 340 332 331 344 339 346 349 346 343 338 336 338 338 337 336 336 337 338 338 340 340 340 340 341 341 341 341 340 339 338
358 358 356 348 347 352 349 347 344 340 334 340 342 344 343 346 345 344 348 341 338 337 336 335 336 337 338 338 339 339 339 339 340 339 338 337 336 335
360 358 355 353 350 351 348 349 346 344 337 340 347 350 347 345 343 348 346 345 340 336 336 336 335 336 337 337 337 337 337 338 336 335 333 333 333 333
357 359 358 353 352 354 354 346 345 347 342 339 347 346 346 347 348 350 347 343 343 341 338 337 335 334 333 333 333 334 335 333 332 329 328 328 328 329
360 357 355 355 351 347 349 348 346 349 350 341 341 348 347 348 346 348 349 347 347 338 334 333 333 333 332 331 331 331 329 327 325 323 323 324 325 326
362 359 358 354 351 352 347 345 347 345 343 343 340 338 344 345 344 342 341 345 342 341 338 336 335 333 332 330 329 328 324 322 320 319 319 320 321 322
361 362 360 357 348 348 350 349 344 344 342 338 337 338 338 341 338 340 338 341 340 342 342 337 337 335 333 331 332 332 327 323 320 319 318 317 316 318
361 360 361 352 348 340 340 342 346 342 340 337 335 333 336 339 344 339 338 337 332 345 338 336 342 334 336 335 335 337 330 325 321 320 318 316 316 316
362 361 359 360 350 352 338 337 337 337 339 342 336 338 340 343 340 342 341 339 337 341 339 333 340 336 340 331 329 328 329 324 321 319 318 316 314 314
361 361 360 359 358 354 350 343 343 341 339 342 343 342 347 349 348 344 342 341 341 341 341 330 336 335 337 329 327 326 324 323 322 319 316 314 311 310
358 360 361 360 348 335 351 347 343 342 334 332 337 336 338 339 345 343 338 335 332 335 339 333 334 331 329 329 325 325 321 318 317 319 315 313 310 309
356 356 338 353 337 328 348 349 346 343 342 338 337 331 333 335 334 344 340 333 331 329 335 331 331 328 317 324 323 319 318 316 314 314 313 313 311 309
352 350 354 329 324 322 327 352 348 349 341 341 338 337 336 337 336 338 340 337 332 329 334 334 328 322 319 317 319 321 320 317 316 313 309 307 309 310
354 355 355 324 321 321 322 335 326 332 348 340 337 335 334 334 337 337 338 338 338 334 328 330 324 319 317 313 311 315 316 317 317 316 317 313 308 307
349 340 322 317 310 316 319 324 323 342 341 337 334 335 335 337 338 338 338 336 334 331 331 329 323 322 317 313 310 310 310 313 316 316 315 312 311 312
337 341 339 328 325 329 330 325 340 345 340 336 332 332 335 337 336 338 333 331 325 326 330 329 327 321 315 315 313 310 313 309 315 317 312 312 313 312
344 352 351 346 341 340 335 335 340 343 337 333 330 330 334 335 330 330 328 326 322 321 322 327 328 323 319 315 311 311 313 315 316 314 311 308 311 308
341 344 337 336 335 335 331 333 336 337 337 334 334 334 332 328 327 327 326 323 320 320 322 322 321 318 317 317 319 311 315 313 312 312 313 307 305 307
341 334 331 329 328 328 330 332 333 333 337 336 333 331 330 328 325 324 322 321 320 321 321 323 320 315 310 306 315 316 311 310 311 311 309 307 304 305
332 330 328 328 329 328 329 329 331 333 333 332 331 330 328 325 324 322 322 320 321 321 321 319 315 313 309 308 309 312 309 311 311 308 307 307 308 310
332 333 335 333 331 329 328 328 329 331 332 331 330 327 326 324 322 323 322 316 318 320 317 315 316 317 317 312 306 306 312 308 312 309 308 304 301 300
332 336 337 336 336 333 334 334 333 329 330 328 328 327 326 326 323 323 323 318 318 319 316 313 314 314 312 309 306 309 311 310 308 308 308 306 301 296
336 337 336 336 337 336 334 331 331 330 330 328 328 328 328 326 325 323 322 318 317 316 314 312 313 313 311 310 310 309 309 311 309 308 308 308 308 305
Wind_Speed
7 5 4 4 3 4 2 1 1 1 3 3 3 4 4 5 10 8 7 13 14 14 13 13 11 10 11 11 11 10 9 9 7 6 6 7 9 10
6 8 6 4 5 3 3 3 2 1 1 2 4 4 4 3 12 8 6 12 14 12 13 13 12 11 11 12 11 11 10 8 6 6 5 6 7 7
8 7 10 7 5 3 4 3 3 3 2 3 3 6 5 6 6 4 3 5 7 17 17 11 10 11 11 11 11 10 9 6 5 5 4 5 6 7
12 7 7 8 8 5 3 6 5 4 4 6 4 2 4 6 7 7 5 5 5 12 11 12 12 12 11 11 10 10 8 7 7 7 5 4 4 5
11 12 10 10 9 9 6 5 4 3 3 3 3 2 2 4 3 3 4 5 4 10 16 16 14 12 11 11 9 10 11 9 8 5 4 5 5 5
12 14 13 13 12 11 9 7 5 5 5 4 4 4 3 4 5 6 4 4 6 5 10 11 12 13 13 12 13 12 9 7 5 4 4 5 7 8
14 13 14 17 18 15 9 8 9 7 4 7 5 4 5 4 9 5 4 5 8 5 4 4 4 5 6 11 10 11 7 7 5 5 4 6 7 7
16 16 16 18 17 18 18 18 13 12 11 7 8 8 7 5 5 6 6 4 3 2 2 2 2 4 5 6 9 9 11 10 9 6 5 7 7 7
17 16 16 15 18 16 19 21 19 18 18 13 8 7 7 8 6 6 5 3 4 3 4 2 1 3 4 3 12 13 13 11 9 9 10 9 8 9
18 19 18 17 15 18 18 18 19 18 14 10 12 9 5 3 4 3 4 5 1 2 2 2 3 4 2 5 13 13 12 12 14 14 12 10 10 10
17 17 18 20 19 19 18 17 17 17 14 18 9 12 13 11 7 4 2 2 4 4 4 4 4 4 3 4 5 13 16 17 14 12 11 11 12 7
16 27 22 20 18 20 21 18 18 18 17 12 11 8 11 9 16 10 6 5 2 3 3 5 7 4 0 2 4 7 6 9 10 13 11 13 9 4
16 14 11 15 15 18 23 19 21 14 16 15 14 10 10 11 6 5 6 6 7 5 3 6 4 3 3 2 1 3 4 3 5 6 13 14 12 11
13 10 10 10 20 22 17 23 14 13 10 12 12 13 12 8 8 9 9 8 5 2 5 5 3 3 3 1 1 2 1 0 0 2 1 2 6 9
8 7 5 5 4 9 16 17 16 9 5 6 5 6 14 15 14 11 8 8 5 5 5 3 4 4 3 2 2 2 1 2 2 1 1 2 2 3
10 12 16 3 3 1 4 6 9 10 11 12 11 8 7 9 10 9 7 6 5 3 5 7 6 5 3 3 3 2 1 1 3 1 1 1 2 4
10 9 9 6 6 4 4 7 9 10 11 11 7 7 9 9 6 7 8 7 5 7 6 4 5 6 4 5 2 3 4 3 2 2 2 2 2 2
3 3 3 3 5 5 6 7 9 12 13 11 9 10 8 10 10 8 7 6 5 6 6 7 6 3 1 4 8 4 3 2 1 2 2 1 2 2
2 2 2 3 3 2 3 5 7 6 4 7 7 6 8 10 11 9 9 8 9 6 4 9 9 5 6 5 4 11 3 1 1 3 1 0 2 4
4 4 4 3 3 3 3 2 0 2 2 2 4 11 8 9 9 8 7 8 6 4 4 3 5 5 5 3 2 1 10 3 3 2 3 3 4 6
5 3 2 2 2 1 3 3 3 3 5 7 6 7 9 10 9 9 10 10 7 5 5 5 5 9 5 5 2 3 3 12 6 5 4 2 2 2
3 5 4 3 3 3 3 4 4 5 6 7 8 8 8 10 10 11 9 7 5 5 5 6 5 5 3 4 4 5 3 3 8 13 3 7 4 2
2 2 3 5 3 4 5 4 4 6 6 5 6 9 9 9 9 9 7 9 8 5 4 6 4 4 5 5 6 4 3 4 3 3 4 11 10 8
Wind_Direction
203 216 223 267 256 174 194 266 177 311 249 203 152 173 143 118 161 174 182 200 201 204 207 211 219 225 239 245 256 265 266 269 275 292 309 327 323 325
206 196 206 235 268 190 186 190 242 240 290 151 227 135 130 102 166 177 195 183 206 211 216 218 221 225 233 244 253 259 264 269 278 290 307 316 318 324
202 211 195 207 244 237 183 202 200 186 239 286 162 150 139 135 157 175 183 188 190 213 218 210 217 230 232 239 248 254 258 255 260 277 280 290 299 304
207 208 201 200 225 240 256 193 201 201 177 227 145 186 174 180 175 180 198 226 211 219 191 201 213 223 224 226 234 235 233 218 225 221 248 273 280 287
207 208 215 204 206 219 215 230 191 192 196 183 258 193 176 172 184 208 213 231 255 163 183 199 205 211 222 219 220 221 212 208 213 227 253 273 283 290
206 211 209 216 211 209 214 205 230 205 196 192 203 224 190 183 172 187 228 230 237 218 197 201 195 210 219 216 220 225 218 217 227 250 285 302 305 308
229 214 214 216 213 207 199 209 205 216 200 202 214 203 212 173 185 194 196 199 233 216 196 186 187 200 217 235 237 222 205 202 211 224 255 282 284 295
220 223 219 210 210 201 203 201 205 199 212 209 204 211 219 199 168 183 182 199 208 178 176 281 180 205 232 214 211 199 198 179 193 210 243 260 270 282
220 222 227 222 207 208 208 207 207 204 205 202 215 210 197 201 180 169 168 156 168 177 143 216 293 285 224 156 151 159 172 172 180 204 218 223 238 247
224 222 226 231 219 208 205 211 214 215 214 214 212 210 183 149 149 173 160 143 14 255 157 213 224 248 256 174 163 157 161 183 202 205 211 219 230 240
226 232 227 227 225 200 209 211 218 223 201 205 184 151 136 129 123 96 227 154 184 212 167 168 233 249 220 156 178 173 189 202 205 207 217 230 234 234
224 236 212 223 206 198 209 208 215 217 207 200 190 170 167 167 169 170 171 212 193 136 194 222 228 174 251 239 127 186 214 225 211 224 230 245 236 217
235 244 242 221 221 203 206 219 221 208 210 202 204 197 185 172 193 169 176 199 227 164 234 199 203 160 152 216 232 178 187 167 187 217 231 247 241 211
244 272 252 229 208 210 205 223 211 204 199 209 208 218 189 157 194 205 189 205 192 220 180 209 162 134 131 142 250 322 318 307 76 253 253 294 232 248
224 241 283 340 231 257 231 220 192 216 231 215 187 171 187 191 195 200 200 181 125 159 169 178 139 117 117 170 223 260 20 301 278 231 44 50 311 298
234 238 244 203 155 160 139 177 210 214 197 183 192 207 231 202 191 179 161 135 126 175 192 167 154 135 148 221 219 257 289 265 273 103 130 308 316 295
221 243 243 224 229 213 199 198 208 201 193 191 199 232 222 185 151 124 114 142 165 180 187 171 158 145 181 203 242 234 243 244 229 125 54 314 282 22
168 178 203 210 246 236 208 217 223 219 209 200 195 189 171 141 130 131 148 168 153 209 188 172 152 146 260 284 195 220 251 145 22 4 288 76 310 329
66 110 156 147 198 189 246 241 236 240 238 200 142 110 145 134 143 156 166 170 195 205 177 157 169 178 195 220 299 182 149 63 296 282 121 286 248 268
97 110 118 124 110 118 134 142 215 99 99 80 151 132 149 136 152 150 175 192 193 160 153 142 158 171 160 193 132 223 187 208 210 217 250 243 240 256
128 154 176 181 180 162 171 184 162 163 171 146 125 132 148 145 152 167 198 188 165 155 170 177 182 158 126 101 93 277 248 199 189 192 230 232 267 261
186 202 183 190 157 167 204 203 181 145 129 130 145 152 160 161 176 195 185 176 172 163 160 126 142 124 119 153 203 238 209 167 233 245 201 156 172 274
161 91 141 114 134 143 149 124 147 139 142 163 159 159 171 207 183 187 186 165 161 152 140 143 162 143 176 188 211 228 253 225 168 195 194 203 201 139